| ตารางข้อมูล | 4529T1 | 4529T2 | 4529T3 | 4529T4 | TH20402 | TH452-9A | TH452-9D | TH814 | ค้นข้อมูล1 | ค้นข้อมูล2 | ค่าสูงสุด-ต่ำสุด |  

Select Sensor -->| 20402 | 452-9A | 452-9D | 4529T1 | 4529T2 | 4529T3 | 4529T4 | 814 | หน้าจอย่อ | 4529 |
ข้อมูลรวม (ยังไม่ได้เลือกรายการ)

IDRoomDate  Temp  Humidity
 165227  452-9A  2021-01-22 04:54:56  27.0  91.1 
 165226  20402  2021-01-22 04:53:24  28.2  43.7 
 165225  452-9D  2021-01-22 04:42:25  27.8  86.9 
 165224  4529T4  2021-01-22 04:40:15  27.5  0.0 
 165223  4529T3  2021-01-22 04:40:15  27.5  0.0 
 165222  4529T2  2021-01-22 04:40:15  23.7  0.0 
 165221  4529T1  2021-01-22 04:40:15  23.8  0.0 
 165220  814  2021-01-22 04:39:17  27.7  83.0 
 165219  452-9A  2021-01-22 04:34:49  26.7  86.5 
 165218  20402  2021-01-22 04:33:24  28.2  43.6 
 165217  452-9D  2021-01-22 04:22:20  27.2  89.8 
 165216  4529T4  2021-01-22 04:20:07  27.6  0.0 
 165215  4529T3  2021-01-22 04:20:07  27.6  0.0 
 165214  4529T2  2021-01-22 04:20:07  24.6  0.0 
 165213  4529T1  2021-01-22 04:20:07  24.1  0.0 
 165212  814  2021-01-22 04:19:13  27.8  82.7 
 165211  452-9A  2021-01-22 04:14:44  27.2  90.9 
 165210  20402  2021-01-22 04:13:23  28.3  43.0 
 165209  452-9D  2021-01-22 04:02:16  27.3  89.5 
 165208  814  2021-01-22 03:59:08  27.8  83.0 
 165207  452-9A  2021-01-22 03:54:39  27.5  91.0 
 165206  20402  2021-01-22 03:53:23  28.2  42.8 
 165205  452-9D  2021-01-22 03:42:16  27.3  89.3 
 165204  814  2021-01-22 03:39:10  27.8  85.8 
 165203  452-9A  2021-01-22 03:34:42  27.5  91.0 
 165202  20402  2021-01-22 03:33:28  28.2  42.8 
 165201  452-9D  2021-01-22 03:22:14  27.3  89.3 
 165200  814  2021-01-22 03:19:08  27.8  85.8 
 165199  4529T4  2021-01-22 03:19:01  27.7  0.0 
 165198  4529T3  2021-01-22 03:19:01  27.7  0.0 
 165197  4529T2  2021-01-22 03:19:01  24.5  0.0 
 165196  4529T1  2021-01-22 03:19:01  24.3  0.0 
 165195  452-9A  2021-01-22 03:14:37  27.7  89.3 
 165194  20402  2021-01-22 03:13:27  28.3  42.8 
 165193  452-9D  2021-01-22 03:02:09  27.4  89.3 
 165192  814  2021-01-22 02:59:03  27.9  86.0 
 165191  4529T4  2021-01-22 02:58:53  27.7  0.0 
 165190  4529T3  2021-01-22 02:58:53  27.7  0.0 
 165189  4529T2  2021-01-22 02:58:53  24.0  0.0 
 165188  4529T1  2021-01-22 02:58:52  23.8  0.0 
 165187  452-9A  2021-01-22 02:54:35  27.2  88.4 
 165186  20402  2021-01-22 02:53:27  28.3  42.6 
 165185  452-9D  2021-01-22 02:42:04  28.2  86.3 
 165184  814  2021-01-22 02:39:01  27.9  86.0 
 165183  4529T4  2021-01-22 02:38:44  27.8  0.0 
 165182  4529T3  2021-01-22 02:38:44  27.8  0.0 
 165181  4529T2  2021-01-22 02:38:44  24.0  0.0 
 165180  4529T1  2021-01-22 02:38:44  23.7  0.0 
 165179  452-9A  2021-01-22 02:34:33  27.2  88.4 
 165178  20402  2021-01-22 02:33:26  28.3  42.4 
 165177  452-9D  2021-01-22 02:22:00  27.5  88.9 
 165176  814  2021-01-22 02:18:58  27.9  86.0 
 165175  4529T4  2021-01-22 02:18:36  27.8  0.0 
 165174  4529T3  2021-01-22 02:18:36  27.8  0.0 
 165173  4529T2  2021-01-22 02:18:36  23.8  0.0 
 165172  4529T1  2021-01-22 02:18:36  23.6  0.0 
 165171  452-9A  2021-01-22 02:14:26  27.4  88.7 
 165170  20402  2021-01-22 02:13:26  28.3  42.2 
 165169  452-9D  2021-01-22 02:01:55  27.5  89.0 
 165168  814  2021-01-22 01:58:56  27.9  85.8 
 165167  4529T4  2021-01-22 01:58:28  27.8  0.0 
 165166  4529T3  2021-01-22 01:58:28  27.8  0.0 
 165165  4529T2  2021-01-22 01:58:27  24.3  0.0 
 165164  4529T1  2021-01-22 01:58:27  23.8  0.0 
 165163  452-9A  2021-01-22 01:54:19  27.9  88.4 
 165162  20402  2021-01-22 01:53:26  0.0  0.0 
 165161  452-9D  2021-01-22 01:41:50  27.6  88.7 
 165160  814  2021-01-22 01:38:53  27.9  85.9 
 165159  4529T4  2021-01-22 01:38:19  27.9  0.0 
 165158  4529T3  2021-01-22 01:38:19  27.9  0.0 
 165157  4529T2  2021-01-22 01:38:19  24.9  0.0 
 165156  4529T1  2021-01-22 01:38:19  24.5  0.0 

Data every 20 minute.